Location: Ferchesar
(52.6477°N, 12.4298°E)
Time: 12:14:15
(UTC+01:00)

Vanguard 3 - Pass Details

Date: 04 December 2021
Orbit: 508 x 3260 km, 33.3° (Epoch: 28 January)

Event Time Altitude Azimuth Distance (km) Brightness Sun altitude
Exits shadow 05:22:54 - 236° (SW) 6,327 11.2 -23.1°
Reaches altitude 10° 05:23:37 10° 235° (SW) 6,196 11.2 -23.0°
Maximum altitude 05:40:11 37° 178° (S) 3,886 10.6 -20.5°
Drops below altitude 10° 05:52:40 10° 118° (ESE) 4,708 12.2 -18.7°
Sets 05:56:06 0° 110° (ESE) 5,361 13.0 -18.2°
